x

9457292 - Kodiak Island, Ak (kdaa2) Weather Station

7:12am - Thu 17th Jan 2019 All times are AKST. -9 hours from GMT.

  • Wind
    7mph, 13mph gusts
  • Sea Temp 40°f
  • Air Temp 41°f
  • Sea Pressure 1002.1mb
  • 9457292 - Kodiak Island, Ak
  • 9457292 - Kodiak Island, Ak

More Historic Weather Station data

Upgrade to MSW Pro to gain access to the past 30 days of data for over 8000 Wavebouys and Weather Stations around the globe.

Join

Comparision Forecast

View Surf forecast
   
Thu 01/17 7:12am 7 13 mph 1002.1mb 40f 41f
7:06am 5 9 mph 1002.1mb 40f 41f
7:00am 5 10 mph 1002.1mb 40f 41f
6:54am 7 10 mph 1002.1mb 40f 41f
6:48am 6 8 mph 1002.2mb 40f 41f
6:42am 7 11 mph 1002.2mb 40f 41f
6:36am 7 11 mph 1002.2mb 40f 41f
6:30am 5 7 mph - - -
6:24am 5 8 mph 1002.2mb 40f 41f
6:18am 6 10 mph 1002.2mb 40f 41f
6:12am 6 10 mph 1002.2mb 40f 41f
6:06am 6 9 mph 1002.2mb 40f 41f
6:00am 5 9 mph 1002.2mb 40f 41f
5:54am 5 8 mph 1002.2mb 40f 41f
5:48am 5 8 mph 1002.2mb 40f 41f
5:42am 6 9 mph 1002.2mb 40f 41f
5:36am 6 9 mph 1002.2mb 40f 41f
5:30am 6 10 mph 1002.2mb 40f 41f
5:24am 5 7 mph 1002.2mb 40f 41f
5:18am 3 7 mph 1002.2mb 40f 41f
5:12am 5 9 mph 1002.2mb 40f 41f
5:06am 5 8 mph 1002.1mb 40f 41f
5:00am 5 8 mph 1002.1mb 40f 41f
4:54am 6 10 mph 1002.1mb 40f 41f
4:48am 7 10 mph 1002.1mb 40f 41f
4:42am 5 9 mph 1002.1mb 40f 41f
4:36am 5 9 mph 1002.1mb 40f 41f
4:30am 5 9 mph 1002.1mb 40f 41f
4:24am 7 9 mph 1002.1mb 40f 41f
4:18am 6 8 mph 1002.1mb 40f 41f
4:12am 6 8 mph 1002mb 40f 41f
4:06am 6 9 mph 1002.1mb 40f 41f
4:00am 6 9 mph 1002.1mb 40f 41f
3:54am 7 10 mph 1002.1mb 40f 41f
3:48am 7 11 mph 1002.1mb 40f 41f
3:42am 8 11 mph 1002.1mb 40f 41f
3:36am 8 11 mph 1002.1mb 40f 41f
3:30am 7 11 mph 1002.1mb - -
3:24am 9 11 mph 1002.1mb 40f 41f
3:18am 7 13 mph 1002.1mb 40f 41f
3:12am 8 13 mph 1002.1mb 40f 41f
3:06am 6 11 mph 1002mb 40f 41f
3:00am 7 10 mph 1002mb 40f 41f
2:54am 6 10 mph 1002mb 40f 41f
2:48am 8 11 mph 1002mb 40f 41f
2:42am 6 11 mph 1001.9mb 40f 41f
2:36am 9 13 mph 1001.9mb 40f 42f
2:30am 7 14 mph 1001.9mb 40f 41f
2:24am 7 14 mph 1001.9mb 40f 42f
2:18am 7 10 mph 1001.9mb 40f 41f
2:12am 7 10 mph 1001.9mb 40f 41f
2:06am 7 13 mph 1001.9mb 40f 41f
2:00am 7 11 mph 1001.9mb 40f 41f
1:54am 7 13 mph 1001.9mb 40f 41f
1:48am 7 9 mph 1001.9mb 40f 41f
1:42am 7 9 mph 1001.9mb 40f 41f
1:36am 6 9 mph 1001.9mb 40f 41f
1:30am 7 10 mph 1001.9mb 40f 42f
1:24am 7 9 mph 1001.9mb 40f 41f
1:18am 7 9 mph 1001.9mb 40f 41f
1:12am 6 9 mph 1001.9mb 40f 41f
1:06am 7 9 mph 1001.8mb 40f 41f
1:00am 6 9 mph 1001.8mb 40f 41f
12:54am 6 10 mph 1001.8mb 40f 41f
12:48am 6 9 mph 1001.8mb 40f 41f
12:42am 3 6 mph 1001.8mb 40f 41f
12:36am 2 3 mph 1001.7mb 40f 41f
12:30am 1 3 mph - - -
12:24am 3 3 mph 1001.7mb 40f 41f
12:18am 2 5 mph 1001.6mb 40f 41f
12:12am 2 5 mph - - -
12:06am 2 5 mph 1001.7mb 40f 41f
12:00am 3 6 mph 1001.7mb 40f 41f
Wed 01/16 11:54pm 3 6 mph 1001.7mb 40f 41f
11:48pm 3 6 mph 1001.7mb 40f 41f
11:42pm 3 6 mph 1001.7mb 40f 41f
11:36pm 3 5 mph 1001.6mb 40f 41f
11:30pm 2 6 mph 1001.6mb 40f 41f
11:24pm 2 5 mph 1001.5mb 40f 41f
11:18pm 1 2 mph 1001.5mb 40f 41f
11:12pm 2 7 mph 1001.5mb 40f 41f
11:06pm 5 6 mph 1001.4mb 40f 41f
11:00pm 3 7 mph 1001.4mb 40f 41f
10:54pm 5 6 mph 1001.4mb 40f 41f
10:48pm 3 8 mph 1001.4mb 40f 41f
10:42pm 5 8 mph 1001.3mb 40f -
10:36pm 1 2 mph 1001.3mb 40f 40f
10:30pm  -  2 mph 1001.3mb 40f 40f
10:24pm 2 2 mph 1001.3mb 40f 40f
10:18pm 2 2 mph 1001.3mb 40f 40f
10:12pm 2 2 mph 1001.2mb 40f 40f
10:06pm 2 2 mph 1001.2mb 40f 40f
10:00pm 1 3 mph 1001.2mb 40f 40f
9:54pm 2 2 mph 1001.2mb 40f 40f
9:48pm 2 5 mph 1001.2mb 40f 40f
9:42pm 3 5 mph 1001.2mb 40f 40f
9:36pm 3 5 mph 1001.1mb 40f 40f
9:30pm 2 3 mph 1001.1mb 40f 40f
9:24pm 2 3 mph 1001.1mb 40f 40f
9:18pm 2 3 mph 1001.1mb 40f 40f
9:12pm 2 3 mph 1001mb 40f 40f
9:06pm 2 2 mph 1001mb 40f 41f
9:00pm 1 2 mph 1001mb 40f 41f
8:54pm 2 2 mph 1000.8mb 40f 40f
8:48pm 1 2 mph 1000.8mb 40f 41f
8:42pm 2 2 mph 1000.8mb 40f 41f
8:36pm 2 3 mph 1000.8mb 40f 41f
8:30pm 2 5 mph 1000.8mb 40f 41f
8:24pm 1 2 mph 1000.8mb 40f 41f
8:18pm 1 2 mph 1000.7mb 40f 41f
8:12pm 1 2 mph 1000.7mb 40f 41f
8:06pm  -  2 mph 1000.6mb 40f 41f
8:00pm  -  3 mph 1000.6mb 40f 41f
7:54pm 2 3 mph 1000.6mb 40f 41f
7:48pm  -  3 mph 1000.5mb 40f 41f
7:42pm 2 2 mph 1000.6mb 40f 42f
7:36pm  -  5 mph 1000.6mb 40f 41f
7:30pm 2 3 mph 1000.5mb 40f 41f
7:24pm 2 5 mph 1000.4mb 40f 41f
7:18pm 2 3 mph 1000.4mb 40f 41f
7:12pm 1 5 mph 1000.4mb 40f 41f
7:06pm  -  2 mph 1000.4mb 40f 41f
7:00pm  -  2 mph 1000.3mb 40f 41f
6:54pm 1 2 mph 1000.3mb 40f 41f
6:48pm 1 2 mph 1000.2mb 40f 41f
6:42pm  -  1 mph 1000.2mb 40f 41f
6:36pm 1 2 mph 1000.2mb 40f 41f
6:30pm 2 3 mph 1000.2mb 40f 41f
6:24pm  -  2 mph 1000.2mb 40f 41f
6:18pm 2 3 mph 1000.1mb 40f 41f
6:06pm  -  1 mph 1000mb 40f 41f
6:00pm 1 1 mph 1000mb 40f 41f
5:54pm  -  3 mph 999.9mb 40f 41f
5:48pm 2 3 mph 999.8mb 40f 41f
5:42pm  -  1 mph 999.8mb 39f 41f
5:36pm  -  2 mph 999.8mb 39f 41f
5:30pm  -  1 mph 999.7mb 39f 41f
5:24pm  -  2 mph 999.7mb 39f 41f
5:18pm  -  1 mph 999.6mb 39f 41f
5:12pm  -  2 mph 999.6mb 39f 41f
5:06pm  -  2 mph 999.5mb 39f 41f
5:00pm  -  1 mph 999.5mb 39f 41f
4:54pm  -  2 mph 999.4mb 39f 41f
4:48pm 1 3 mph 999.4mb 39f 41f
4:42pm 2 6 mph 999.3mb 39f 42f
4:36pm 5 8 mph 999.2mb 39f 42f
4:30pm 3 6 mph 999.1mb 39f 42f
4:24pm 3 7 mph 999mb 39f 42f
4:18pm 5 7 mph 998.9mb 39f 42f
4:12pm 5 7 mph 998.9mb - -
4:06pm 3 8 mph 998.9mb 39f 41f
4:00pm 3 7 mph 998.8mb 39f 41f
3:54pm 2 5 mph 998.8mb 39f 42f
3:48pm 5 8 mph 998.7mb 39f 42f
3:42pm 5 8 mph 998.6mb 39f 42f
3:36pm 5 8 mph 998.6mb 39f 42f
3:30pm 3 7 mph 998.5mb 39f 42f
3:24pm 3 7 mph 998.5mb 39f 42f
3:18pm 3 5 mph 998.4mb 39f 42f
3:12pm 2 6 mph 998.4mb 39f 42f
3:06pm  -  1 mph 998.4mb 39f 42f
3:00pm  -  3 mph 998.3mb 39f 42f
2:54pm 1 6 mph 998.3mb 39f 42f
2:48pm 3 6 mph 998.2mb 39f 42f
2:42pm  -  5 mph 998.2mb 39f 42f
2:36pm 2 5 mph 998.1mb 39f 42f
2:30pm 2 7 mph 998.1mb 39f 42f
2:24pm 3 6 mph 998mb 39f 42f
2:18pm 5 7 mph 998mb 39f 42f
2:12pm 3 6 mph 998mb 39f 42f
2:06pm 5 7 mph 998.1mb 39f 42f
2:00pm 6 7 mph 998.1mb 39f 42f
1:54pm 3 6 mph 998mb 39f 42f
1:48pm 5 7 mph 998.1mb 39f 42f
1:42pm 2 5 mph 998.1mb 39f -
1:36pm  -  6 mph 998.1mb 39f 42f
1:30pm 2 3 mph 998.2mb 40f 42f
1:24pm 2 8 mph 998.2mb 40f 42f
1:18pm 1 6 mph 998.2mb 40f 42f
1:12pm 2 7 mph 998.2mb 40f 42f
1:06pm 2 5 mph 998.3mb 40f 42f
1:00pm 1 3 mph 998.3mb 40f 42f
12:54pm  -  6 mph 998.2mb 40f 42f
12:48pm 2 10 mph 998.1mb 40f 42f
12:42pm 6 11 mph 998.2mb 40f 42f
12:36pm 2 7 mph 998.1mb 40f 42f
12:30pm 2 7 mph 998.1mb 40f 42f
12:24pm 3 10 mph 998mb 40f 42f
12:18pm 6 10 mph 998mb 40f 43f
12:12pm 5 14 mph 997.8mb 40f 43f
12:06pm 3 6 mph 997.8mb 40f 43f
12:00pm 2 7 mph 997.8mb 40f 43f
11:54am 6 13 mph 997.8mb 40f 43f
11:48am 6 10 mph 997.7mb 40f 43f
11:42am 5 10 mph 997.7mb 40f 43f
11:36am 6 10 mph 997.5mb 40f 43f
11:30am 5 9 mph 997.5mb 40f 43f
11:24am 3 7 mph 997.5mb 40f 43f
11:18am 2 7 mph 997.5mb 40f 43f
11:12am  -  6 mph 997.4mb 40f 43f
11:06am  -  mph - - 43f
11:00am 1 6 mph 997.2mb 40f -
10:54am 2 6 mph 997.1mb 40f 42f
10:48am 2 5 mph 997.1mb 40f 43f
10:42am 1 7 mph 996.9mb 40f 43f
10:36am 2 6 mph 996.7mb 40f 43f
10:30am 1 6 mph 996.7mb 40f 43f
10:24am 2 13 mph 996.6mb 40f 43f
10:18am 2 9 mph 996.5mb 40f 43f
10:12am 6 14 mph 996.4mb 40f 43f
10:06am 8 18 mph 996.2mb 40f 43f
10:00am 11 17 mph 996.1mb 40f 43f
9:54am 10 23 mph 995.9mb 40f 43f
9:48am 11 20 mph 995.8mb 40f 43f
9:42am 14 20 mph 995.6mb 40f 43f
9:36am 15 22 mph 995.5mb 40f 43f
9:30am 14 24 mph 995.3mb 40f 42f
9:24am 16 25 mph 995.2mb 40f 42f
9:18am 16 24 mph 995.3mb 40f 42f
9:12am 15 23 mph 995.3mb 40f 42f
9:06am 13 24 mph 995.2mb 40f 42f
9:00am 16 25 mph 995.2mb 40f 42f
8:54am 11 21 mph 995.4mb 40f 41f
8:48am 16 25 mph 995.3mb 40f 41f
8:42am 15 23 mph 995.2mb 40f 41f
8:36am 14 24 mph 995.2mb 40f 41f
8:30am 14 25 mph 995.2mb 40f 41f
8:24am 16 25 mph 995.2mb 40f 41f
8:18am 14 26 mph 995.4mb 40f 41f
8:12am 16 26 mph 995.4mb 40f 41f
8:06am 17 29 mph 995.4mb 40f 41f
8:00am 16 22 mph 995.3mb 40f 41f
7:54am 15 25 mph 995.5mb 40f 40f
7:48am 15 30 mph 995.6mb 40f 40f
7:42am 14 24 mph - - -
7:36am 10 22 mph 995.9mb 40f 40f
7:30am 13 23 mph 996mb 40f 40f
7:24am 10 20 mph 996.2mb 40f 40f
7:18am 13 23 mph 996.3mb 40f 40f
7:12am 16 26 mph 996.4mb 40f 40f
7:06am 15 22 mph 996.5mb 40f 40f
7:00am 13 20 mph 996.5mb 40f 40f
6:54am 11 17 mph 996.5mb 40f 40f
6:48am 10 16 mph 996.3mb 40f 40f
6:42am 8 16 mph 996.2mb 40f 40f
6:36am 8 14 mph 996.5mb 40f 40f
6:30am 10 17 mph 996.7mb 40f 40f
6:24am 11 17 mph 996.5mb 40f 40f
6:18am 10 17 mph 996.4mb 40f 40f
6:12am 14 21 mph 996.5mb 40f 40f
6:06am 9 14 mph 996.7mb 40f 40f
6:00am 11 15 mph 996.8mb 40f 40f
5:54am 9 13 mph 996.8mb 40f 40f
5:48am 9 13 mph 996.6mb 40f 40f
5:42am 7 13 mph 996.6mb 40f 40f
5:36am 7 15 mph 996.8mb 40f 40f
5:30am 8 15 mph 996.8mb 40f 40f
5:24am 8 14 mph 996.9mb 40f 40f
5:18am 9 15 mph 996.9mb 40f 40f
5:12am 8 14 mph 996.9mb 40f 40f
5:06am 9 14 mph 996.9mb 40f 40f
5:00am 7 10 mph 996.8mb 40f 40f
4:54am 8 11 mph 996.8mb 40f 40f
4:48am 7 13 mph 996.8mb 40f 40f
4:42am 8 13 mph 996.8mb 40f 41f
4:36am 7 14 mph 996.8mb 40f 41f
4:30am 9 13 mph 996.8mb 40f 41f
4:24am 8 10 mph 996.8mb 40f 41f
4:18am 7 13 mph 996.7mb 40f 41f
4:12am 7 10 mph 996.7mb 40f 41f
4:06am 7 13 mph 996.6mb 40f 41f
4:00am 8 13 mph 996.6mb 40f 41f
3:54am 6 11 mph 996.6mb 40f 41f
3:48am 7 11 mph 996.5mb 40f 41f
3:42am 8 13 mph 996.6mb 40f 41f
3:36am 9 17 mph 996.6mb 40f 41f
3:30am 9 13 mph 996.6mb 40f 41f
3:24am 10 14 mph 996.6mb 40f 41f
3:18am 13 18 mph 996.4mb 40f 41f
3:12am 13 21 mph 996.4mb 40f 42f
3:06am 13 17 mph 996.3mb 40f 42f
3:00am 11 15 mph 996.2mb 40f 42f
2:54am 9 14 mph 996.2mb 40f 42f
2:48am 9 16 mph 996.1mb 40f 42f
2:42am 9 15 mph 996.1mb 40f 42f
2:36am 11 18 mph 996.1mb 40f 42f
2:30am 10 16 mph 996.1mb 40f 42f
2:24am 11 18 mph 996.2mb 40f 42f
2:18am 10 17 mph 996.2mb 40f 42f
2:12am 9 14 mph 996.3mb 40f 42f
2:06am 10 15 mph 996.3mb 40f 42f
2:00am 8 14 mph 996.3mb 40f 42f
1:54am 10 17 mph 996.3mb 40f 42f
1:48am 11 17 mph 996.4mb 40f 42f
1:42am 11 22 mph 996.4mb 40f 42f
1:36am 11 21 mph 996.4mb 40f 42f
1:30am 10 16 mph 996.4mb 40f 42f
1:24am 11 21 mph 996.4mb 40f 42f
1:18am 13 21 mph 996.5mb 40f 42f
1:12am 14 24 mph 996.5mb 40f 42f
1:06am 14 22 mph 996.6mb 40f 42f
1:00am 15 22 mph 996.6mb 40f 42f
12:54am 14 22 mph 996.6mb 40f 42f
12:48am 13 18 mph 996.6mb 40f 42f
12:42am 14 20 mph 996.6mb 40f 42f
12:36am 15 22 mph 996.7mb 40f 42f
12:30am 14 22 mph 996.7mb 40f 42f
12:24am 14 20 mph 996.7mb 40f 42f
12:18am 10 17 mph 996.7mb 40f 42f
12:12am 15 22 mph 996.7mb 40f -
12:06am 16 24 mph 996.7mb 40f 42f
12:00am 13 20 mph 996.7mb 40f 42f
Tue 01/15 11:54pm 13 22 mph 996.6mb 40f 42f
11:48pm 15 23 mph 996.7mb 40f 42f
11:42pm 14 25 mph 996.7mb 40f 42f
11:36pm 15 24 mph 996.7mb 40f 42f
11:30pm 14 23 mph 996.8mb 40f 42f
11:24pm 15 25 mph 996.8mb 40f 42f
11:18pm 15 22 mph 996.8mb 40f 42f
11:12pm 14 22 mph 996.9mb 40f 42f
11:06pm 17 23 mph 996.8mb 40f 42f
11:00pm 17 26 mph 996.8mb 40f 42f
10:54pm 17 26 mph 996.8mb 40f 42f
10:48pm 15 24 mph 996.7mb 40f 42f
10:42pm 17 30 mph 996.7mb 40f 42f
10:36pm 17 25 mph 996.6mb 40f 42f
10:30pm 16 25 mph 996.6mb 40f 42f
10:24pm 16 25 mph 996.6mb 40f 42f
10:18pm 13 25 mph 996.6mb 40f 42f
10:12pm 22 29 mph 996.6mb 40f 42f
10:06pm 20 28 mph 996.6mb 40f 42f
10:00pm 17 25 mph 996.5mb 40f 42f
9:54pm 17 32 mph 996.6mb 40f 42f
9:48pm 15 25 mph 996.6mb 40f 42f
9:42pm 14 29 mph 996.7mb 40f 42f
9:36pm 15 28 mph 996.6mb 40f 42f
9:30pm 17 33 mph 996.6mb 40f 42f
9:24pm 13 23 mph 996.7mb 40f 41f
9:18pm 11 23 mph 996.7mb 40f 41f
9:12pm 14 22 mph 996.9mb 40f 41f
9:06pm 13 22 mph 996.8mb 40f 41f
9:00pm 15 26 mph 996.8mb 40f 41f
8:54pm 9 24 mph 996.9mb 40f 41f
8:48pm 15 26 mph 996.9mb 40f 41f
8:42pm 15 28 mph - - -
8:36pm 17 29 mph 997mb 40f 41f
8:30pm 9 31 mph 997.2mb 40f 41f
8:24pm 13 21 mph 997.3mb 40f 41f
8:18pm 10 18 mph 997.4mb 40f 41f
8:12pm 13 22 mph 997.4mb 40f 41f
8:06pm 15 25 mph 997.4mb 40f 41f
8:00pm 15 25 mph 997.5mb 40f 41f
7:54pm 13 21 mph 997.6mb 40f 40f
7:48pm 13 18 mph 997.7mb 40f 40f
7:42pm 9 20 mph - - -
7:36pm 11 17 mph 997.9mb 40f 40f
7:30pm 9 17 mph 998mb 40f 40f
7:24pm 13 21 mph 998mb 40f 40f
7:18pm 11 18 mph 998.2mb 40f 40f
7:12pm 10 16 mph 998.3mb 40f 40f
7:06pm 13 23 mph 998.2mb 40f 40f
7:00pm 7 22 mph 998.3mb 40f 40f
6:54pm 9 20 mph 998.4mb 40f 40f
6:48pm 9 15 mph 998.4mb 40f 40f
6:42pm 11 18 mph 998.4mb 40f 40f
6:36pm 9 20 mph 998.5mb 40f 40f
6:30pm 10 21 mph - - -
6:24pm 13 25 mph 998.7mb 40f 41f
6:18pm 13 20 mph 998.8mb 40f 41f
6:12pm 14 21 mph 998.9mb 40f 41f
6:06pm 10 17 mph 998.9mb 40f 41f
6:00pm 10 21 mph 999mb 40f 41f
5:54pm 13 20 mph 999mb 40f 42f
5:48pm 14 23 mph 999mb 40f 42f
5:42pm 13 23 mph 999.1mb 40f 42f
5:36pm 13 20 mph 999.2mb 40f 42f
5:30pm 9 21 mph 999.3mb 40f 42f
5:24pm 9 18 mph 999.4mb 40f 42f
5:18pm 14 21 mph 999.4mb 40f 42f
5:12pm 13 26 mph 999.5mb 40f 42f
5:06pm 11 20 mph 999.6mb 40f 42f
5:00pm 13 21 mph 999.6mb 40f 42f
4:54pm 13 23 mph 999.7mb 40f 42f
4:48pm 10 22 mph 999.8mb 40f 42f
4:42pm 14 21 mph - - -
4:36pm 13 20 mph 1000mb 40f 42f
4:30pm 15 20 mph 1000.1mb 40f 41f
4:24pm 11 17 mph 1000.2mb 40f 42f
4:18pm 9 16 mph 1000.3mb 40f 41f
4:12pm 10 16 mph 1000.3mb 40f 41f
4:06pm 10 15 mph 1000.4mb 40f 41f
4:00pm 10 17 mph 1000.5mb 40f 41f
3:54pm 9 18 mph 1000.5mb 40f 41f
3:48pm 14 20 mph 1000.6mb 40f 41f
3:42pm 9 21 mph 1000.8mb 40f 41f
3:36pm 8 15 mph 1000.8mb 40f 41f
3:30pm 7 14 mph 1000.9mb 40f 41f
3:24pm 10 15 mph 1000.9mb 40f 41f
3:18pm 8 21 mph 1000.9mb 40f 40f
3:12pm 7 17 mph 1001mb 40f 40f
3:06pm 8 17 mph 1001mb 40f 40f
3:00pm 10 16 mph 1001mb 40f 41f
2:54pm 9 16 mph 1001.1mb 40f 40f
2:48pm 10 21 mph 1001.2mb 40f 40f
2:42pm 9 16 mph 1001.3mb 40f 40f
2:36pm 9 17 mph 1001.3mb 40f 40f
2:30pm 6 13 mph 1001.5mb 40f 40f
2:24pm 8 17 mph 1001.5mb 40f 40f
2:18pm 8 14 mph 1001.5mb 40f 40f
2:12pm 8 16 mph 1001.6mb 40f 40f
2:06pm 7 20 mph 1001.7mb 40f 40f
2:00pm 7 14 mph 1001.8mb 40f 40f
1:54pm 7 15 mph 1001.9mb 40f 40f
1:48pm 8 18 mph 1001.9mb 40f 40f
1:42pm 13 18 mph 1002mb 40f 41f
1:36pm 11 18 mph 1002.1mb 40f 41f
1:30pm 14 22 mph 1002.3mb 40f 40f
1:24pm 15 21 mph 1002.4mb 40f 40f
1:18pm 11 23 mph 1002.4mb 40f 41f
1:12pm 14 23 mph 1002.4mb 40f 41f
1:06pm 17 22 mph 1002.5mb 40f 41f
1:00pm 14 21 mph 1002.6mb 40f 41f
12:54pm 14 23 mph 1002.7mb 40f 41f
12:48pm 10 21 mph 1002.8mb 40f 40f
12:42pm 11 21 mph 1002.8mb 40f 41f
12:36pm 8 14 mph 1002.8mb 40f 40f
12:30pm 8 15 mph 1003mb 40f 40f
12:24pm 7 14 mph 1003.1mb 40f 40f
12:18pm 10 16 mph 1003.2mb 40f 40f
12:12pm 8 18 mph 1003.3mb - -
12:06pm 13 22 mph 1003.4mb 40f 40f
12:00pm 13 20 mph 1003.5mb 40f 40f
11:54am 13 17 mph 1003.6mb 40f 41f
11:48am 11 20 mph 1003.6mb 40f 40f
11:42am 10 17 mph 1003.7mb 40f 40f
11:36am 9 18 mph 1003.8mb 40f 40f
11:30am 9 16 mph 1003.8mb 40f 40f
11:24am 13 20 mph 1003.9mb 40f 40f
11:18am 9 17 mph 1003.9mb 40f 40f
11:12am 11 21 mph 1004mb 40f 41f
11:06am 11 17 mph 1004mb 40f 40f
11:00am 10 16 mph 1004.1mb 40f 40f
10:54am 9 16 mph 1004.2mb 40f 40f
10:48am 8 13 mph 1004.2mb 40f 40f
10:42am 9 15 mph 1004.2mb 40f 40f
10:36am 10 16 mph 1004.3mb 40f 40f
10:30am 8 16 mph 1004.4mb 40f 40f
10:24am 10 17 mph 1004.5mb 40f 40f
10:18am 13 17 mph 1004.5mb 40f 40f
10:12am 10 18 mph 1004.5mb 40f 40f
10:06am 9 14 mph 1004.5mb 40f 40f
10:00am 9 18 mph 1004.6mb 40f 40f
9:54am 11 16 mph 1004.7mb 40f 40f
9:48am 11 16 mph 1004.7mb 40f 40f
9:42am 9 13 mph 1004.8mb 40f 40f
9:36am 8 13 mph 1004.9mb 40f 40f
9:30am 8 14 mph 1005mb 40f 40f
9:24am 11 16 mph 1005.1mb 40f 40f
9:18am 7 13 mph 1005.1mb 40f 39f
9:12am 6 11 mph 1005.2mb 40f 39f
9:06am 8 13 mph 1005.2mb 40f 39f
9:00am 7 11 mph 1005.3mb 40f 39f
8:54am 9 13 mph 1005.3mb 40f 39f
8:48am 11 16 mph 1005.3mb 40f 40f
8:42am 8 14 mph 1005.3mb 40f 39f
8:36am 8 15 mph 1005.4mb 40f 39f
8:30am 10 15 mph 1005.4mb 40f 39f
8:24am 9 15 mph 1005.5mb 40f 39f
8:18am 8 14 mph 1005.6mb 40f 39f
8:12am 8 10 mph 1005.6mb 40f 39f
8:06am 6 8 mph 1005.7mb 40f 39f
8:00am 5 6 mph 1005.8mb 40f 38f
7:54am 5 6 mph 1005.9mb 40f 38f
7:48am 3 5 mph 1006mb 40f 39f
7:42am 3 6 mph 1006.1mb 40f 39f
7:36am 3 6 mph 1006.2mb 40f 38f
7:30am 3 8 mph 1006.3mb 40f 38f
7:24am 3 7 mph 1006.3mb 40f 38f
7:18am 5 8 mph 1006.4mb 40f 38f
7:12am 6 8 mph 1006.5mb 40f 38f
7:06am 5 9 mph 1006.6mb 40f 38f
7:00am 6 10 mph 1006.6mb 40f 38f
6:54am 8 11 mph 1006.6mb 40f 38f
6:48am 7 11 mph 1006.6mb 40f 38f
6:42am 11 14 mph 1006.6mb - -
6:36am 8 10 mph 1006.7mb 40f 38f
6:30am 7 10 mph 1006.7mb 40f 38f
6:24am 5 8 mph 1006.8mb 40f 38f
6:18am 5 6 mph 1006.8mb 40f 38f
6:12am 3 6 mph 1006.8mb 40f 38f
6:06am 5 7 mph 1006.8mb 40f 38f
6:00am 3 6 mph 1006.9mb 39f 38f
5:54am 3 7 mph 1007mb 39f 38f
5:48am 6 9 mph 1007.1mb 39f 38f
5:42am 6 8 mph 1007.1mb 39f 38f
5:36am 5 8 mph 1007.1mb 39f 38f
5:30am 6 7 mph 1007.1mb 39f 38f
5:24am 7 9 mph 1007.1mb 39f 38f
5:18am 5 7 mph 1007.2mb 39f 38f
5:12am 5 8 mph 1007.2mb 39f 38f
5:06am 6 9 mph - - -
5:00am 7 9 mph 1007.2mb - 39f
4:54am 7 9 mph 1007.3mb 39f 39f
4:48am 7 10 mph 1007.3mb 39f 40f
4:42am 6 9 mph 1007.3mb 39f 39f
4:36am 5 7 mph 1007.4mb 39f 39f
4:30am 5 9 mph 1007.5mb 39f 39f
4:24am 3 6 mph 1007.5mb 39f 39f
4:18am 6 9 mph 1007.6mb 39f 39f
4:12am 5 9 mph 1007.7mb 39f 39f
4:06am 5 8 mph 1007.8mb 39f 39f
4:00am 3 7 mph 1007.8mb - -
3:54am 5 10 mph 1007.8mb 39f 39f
3:48am 7 10 mph 1007.9mb 39f 40f
3:42am 7 13 mph 1007.9mb 39f 40f
3:36am 6 10 mph 1007.9mb 39f 40f
3:30am 5 9 mph 1007.8mb 39f 40f
3:24am 6 9 mph 1007.9mb 39f 40f
3:18am 5 8 mph 1007.9mb 39f 40f
3:12am 3 10 mph 1007.9mb 39f 40f
3:06am 3 8 mph 1008mb 39f 40f
3:00am 1 7 mph 1008mb 39f 40f
2:54am 3 11 mph 1008mb 39f 40f
2:48am 6 9 mph 1008mb 39f 40f
2:42am 5 7 mph 1008mb 39f 40f
2:36am 3 16 mph 1008.1mb 39f 40f
2:30am 3 14 mph 1008.1mb 39f 40f
2:24am 8 13 mph 1008mb 39f 39f
2:18am 8 14 mph 1008.1mb 39f 39f
2:12am 5 7 mph 1008.1mb 39f 39f
2:06am 2 6 mph 1008.1mb 39f 39f
2:00am 1 3 mph 1008.2mb 39f 39f
1:54am 1 3 mph 1008.2mb 39f 39f
1:48am 2 5 mph 1008.2mb 39f 39f
1:42am  -  5 mph 1008.2mb 39f 39f
1:36am 2 7 mph 1008.3mb 39f 39f
1:30am 3 6 mph 1008.3mb 39f 39f
1:24am 1 5 mph 1008.4mb 39f 39f
1:18am  -  5 mph 1008.5mb 39f 39f
1:12am 3 7 mph 1008.5mb 39f 39f
1:06am 1 3 mph 1008.6mb 39f 39f
1:00am 1 5 mph 1008.7mb 39f 39f
12:54am 2 6 mph 1008.6mb 39f 39f
12:48am 2 7 mph 1008.7mb 39f 39f
12:42am 2 6 mph 1008.7mb 39f 39f
12:36am 2 5 mph 1008.8mb 39f 39f
12:30am 2 5 mph 1008.8mb 39f 39f
12:24am 3 15 mph 1008.9mb 40f 39f
12:18am 9 14 mph 1008.8mb 40f 39f
12:12am 8 13 mph 1008.8mb 40f 39f
12:06am 6 11 mph 1008.8mb 40f 39f
12:00am 7 11 mph 1008.8mb 40f 39f
Mon 01/14 11:54pm 7 11 mph 1008.8mb 40f 39f
11:42pm 5 8 mph 1008.8mb 40f 39f
11:36pm 7 9 mph 1008.9mb 40f 39f
11:30pm 6 11 mph 1008.8mb 40f 39f
11:24pm 5 11 mph 1008.8mb 40f 40f
11:18pm 2 6 mph 1008.8mb 40f 40f
11:12pm 3 8 mph 1008.7mb 40f 40f
11:06pm 6 8 mph 1008.7mb 40f 40f
11:00pm 3 13 mph 1008.7mb 40f 40f
10:54pm 7 14 mph - 40f 40f
10:48pm 8 14 mph - 40f 40f
10:42pm 7 13 mph 1008.7mb 40f 40f
10:36pm 7 10 mph 1008.6mb 40f 40f
10:30pm 7 13 mph - - -
10:24pm 8 10 mph 1008.6mb 40f 40f
10:18pm 7 11 mph 1008.7mb 40f 41f
10:12pm 5 9 mph 1008.7mb 40f 41f
10:06pm 6 11 mph 1008.6mb 40f 41f
10:00pm 3 8 mph 1008.6mb 40f 41f
9:54pm 6 10 mph 1008.6mb 40f 41f
9:48pm 8 11 mph 1008.5mb 40f 41f
9:42pm 7 10 mph 1008.5mb 40f 41f
9:36pm 7 14 mph 1008.3mb 40f 40f
9:30pm 6 10 mph 1008.3mb 40f 40f
9:24pm 3 14 mph 1008.4mb 40f 40f
9:18pm 5 10 mph 1008.2mb 40f 40f
9:12pm 2 8 mph 1008.1mb 40f 39f
9:06pm 6 11 mph 1008.1mb 40f 40f
9:00pm 8 13 mph 1008mb 40f 40f
8:54pm 5 9 mph 1008mb 40f 40f
8:48pm 2 9 mph 1008.1mb 40f 40f
8:42pm 3 7 mph 1008mb 40f 40f
8:36pm 5 10 mph 1008mb 40f 40f
8:30pm 5 9 mph 1008.1mb 40f 41f
8:24pm 8 11 mph 1008mb 40f 41f
8:18pm 9 15 mph 1008mb 40f 41f
8:12pm 9 17 mph 1008mb 40f 41f
8:06pm 10 17 mph 1007.9mb 40f 41f
8:00pm 8 14 mph 1007.8mb 40f 41f
7:54pm 10 14 mph 1007.8mb 40f 41f
7:48pm 9 17 mph 1007.8mb 40f 41f
7:42pm 9 16 mph - - -
7:36pm 8 17 mph 1007.8mb 40f 41f
7:30pm 8 16 mph 1007.8mb 40f 41f
7:24pm 10 20 mph 1007.8mb 40f 41f
7:18pm 9 17 mph 1007.8mb 40f 41f
7:12pm 9 16 mph 1007.8mb 40f 41f
7:06pm 10 20 mph 1007.9mb 40f 41f
7:00pm 8 16 mph 1007.9mb 40f 41f
6:54pm 8 15 mph 1007.8mb 40f 41f
6:48pm 9 14 mph 1007.8mb 40f 41f
6:42pm 7 11 mph 1007.7mb 40f 41f
6:36pm 7 11 mph 1007.7mb 40f 41f
6:30pm 5 13 mph 1007.7mb 40f 41f
6:24pm 3 9 mph 1007.7mb 40f 41f
6:18pm 6 8 mph 1007.6mb 40f 41f
6:12pm 1 7 mph 1007.5mb 40f 41f
6:06pm  -  6 mph 1007.7mb 40f 41f
6:00pm  -  3 mph 1007.7mb 40f 41f
5:54pm  -  9 mph 1007.8mb 40f 41f
5:48pm 5 9 mph 1007.8mb 40f 41f
5:42pm 2 7 mph 1007.8mb 40f 41f
5:36pm 1 6 mph 1007.8mb 40f 41f
5:30pm 3 7 mph 1007.8mb 40f 41f
5:24pm 5 9 mph 1007.9mb 40f 41f
5:18pm 1 11 mph 1007.9mb 40f 41f
5:12pm 1 11 mph 1007.9mb 40f 41f
5:06pm 7 13 mph 1007.9mb 40f 41f
5:00pm 7 13 mph 1007.9mb 40f 41f
4:54pm 5 9 mph 1007.9mb 40f 40f
4:48pm 1 3 mph 1007.8mb 40f 41f
4:42pm 2 9 mph 1007.8mb 40f 41f
4:36pm 5 10 mph 1007.8mb 40f 40f
4:30pm 5 13 mph 1007.7mb 40f 40f
4:24pm 5 10 mph 1007.7mb 40f 40f
4:18pm 6 13 mph 1007.7mb 40f 40f
4:12pm 5 7 mph 1007.6mb 40f -
4:06pm 1 3 mph 1007.6mb 40f 40f
4:00pm 2 3 mph 1007.6mb 40f 40f
3:54pm 3 10 mph 1007.7mb 40f 40f
3:48pm 2 5 mph 1007.7mb 40f 40f
3:42pm 3 10 mph 1007.7mb 40f 40f
3:36pm 2 15 mph 1007.7mb 40f 41f
3:30pm 8 14 mph 1007.5mb 40f 41f
3:24pm 7 11 mph 1007.5mb 39f 41f
3:18pm 8 13 mph 1007.5mb 39f 40f
3:12pm 6 11 mph 1007.5mb 39f 41f
3:06pm 7 11 mph 1007.4mb 39f 41f
3:00pm 6 11 mph 1007.4mb 39f 40f
2:54pm 8 14 mph 1007.5mb 39f 40f
2:48pm 5 11 mph 1007.5mb 39f 40f
2:42pm 8 13 mph 1007.6mb - -
2:36pm 6 13 mph 1007.5mb 39f 40f
2:30pm 8 13 mph 1007.5mb 39f 40f
2:24pm 5 13 mph 1007.6mb 39f 40f
2:18pm 6 13 mph 1007.7mb 39f 40f
2:12pm 3 7 mph 1007.7mb 39f 40f
2:06pm 2 7 mph 1007.7mb 39f 40f
2:00pm 5 10 mph 1007.8mb 39f 40f
1:54pm 5 10 mph 1007.8mb 39f 40f
1:48pm 5 10 mph 1007.9mb 39f 40f
1:42pm 5 14 mph 1007.9mb 39f 40f
1:36pm 2 8 mph 1007.9mb 39f 40f
1:30pm 6 14 mph 1007.9mb 39f 40f
1:24pm 5 9 mph 1007.9mb 39f 40f
1:18pm 6 13 mph 1007.9mb 39f 40f
1:12pm 6 15 mph 1007.8mb 39f 40f
1:06pm 6 13 mph 1007.7mb 39f 40f
1:00pm 7 13 mph 1007.7mb 39f 40f
12:54pm 8 14 mph 1007.7mb 39f 40f
12:48pm 6 11 mph 1007.7mb 39f 40f
12:42pm 5 9 mph 1007.9mb 40f 40f
12:36pm 5 11 mph 1007.9mb 40f 40f
12:30pm 2 9 mph 1007.9mb 40f 40f
12:24pm 3 8 mph 1007.9mb 40f 40f
12:18pm 2 7 mph 1007.9mb 40f 40f
12:12pm 3 10 mph 1008mb 40f 40f
12:06pm 9 17 mph 1008mb 40f 40f
12:00pm 7 14 mph 1008mb 40f 40f
11:54am 7 10 mph 1008mb 40f 40f
11:48am 6 9 mph 1008.1mb 40f 40f
11:42am 5 9 mph - - -
11:36am 5 15 mph 1008.2mb 40f 40f
11:30am 7 10 mph 1008.1mb 40f 40f
11:24am 8 10 mph 1008.2mb 40f 40f
11:18am 6 8 mph 1008.2mb 40f 40f
11:12am 6 9 mph 1008.2mb 40f 40f
11:06am 6 9 mph 1008.3mb 40f 40f
11:00am 6 11 mph 1008.3mb 40f 40f
10:54am 5 9 mph 1008.3mb 40f 40f
10:48am 6 9 mph 1008.3mb 40f 40f
10:42am 3 8 mph 1008.4mb 40f 40f
10:36am 3 7 mph 1008.3mb 40f 40f
10:30am 5 6 mph 1008.3mb 40f 40f
10:24am 2 9 mph 1008.3mb 40f 40f
10:18am 3 7 mph 1008.2mb 40f 40f
10:12am 3 8 mph 1008.2mb 40f 40f
10:06am 5 7 mph 1008mb 40f 40f
10:00am 2 6 mph 1008mb 40f 40f
9:54am 5 7 mph 1008mb 40f 40f
9:48am 3 7 mph 1008mb 40f 40f
9:42am 2 8 mph - - -
9:36am 3 9 mph 1008.1mb 40f 40f
9:30am 2 11 mph 1008.1mb 40f 40f
9:24am 5 10 mph 1008.1mb 40f 40f
9:18am 6 11 mph 1008mb 40f 40f
9:12am 2 7 mph 1007.8mb 40f 40f
9:06am  -  3 mph 1007.6mb 40f 40f
9:00am 2 7 mph 1007.6mb 40f 40f
8:54am 2 7 mph 1007.5mb 40f 40f
8:48am 1 7 mph 1007.6mb 40f 40f
8:42am 3 10 mph 1007.5mb 40f 40f
8:36am 5 9 mph 1007.4mb 40f 40f
8:30am 3 11 mph 1007.4mb 40f 40f
8:24am 1 5 mph 1007.2mb 40f 40f
8:18am 3 7 mph 1007.2mb 40f 40f
8:12am 1 7 mph 1007.2mb 40f 40f
8:06am 2 9 mph 1007.2mb 40f 40f
7:54am 1 3 mph 1007.3mb 40f 40f
7:48am 1 6 mph 1007.3mb 40f 40f
7:42am 5 8 mph 1007.4mb 40f 40f
7:36am 3 8 mph 1007.4mb 40f 40f
7:30am 5 7 mph 1007.4mb 40f 41f
7:24am 1 9 mph 1007.3mb 40f 41f
7:18am 3 7 mph 1007.3mb 40f 41f
7:12am 2 8 mph 1007.1mb 40f 41f
7:06am 1 6 mph 1007.1mb 40f 40f
7:00am 1 10 mph 1007.1mb 40f 40f
6:54am 1 6 mph 1007.1mb 40f 40f
6:48am 2 7 mph 1007.1mb 40f 40f
6:42am 5 7 mph - - -
6:36am 3 7 mph 1007mb 40f 40f
6:30am 5 10 mph 1007.2mb 40f 40f
6:24am 1 7 mph 1007.4mb 40f 40f
6:18am 3 7 mph 1007.3mb 40f 40f
6:12am 3 10 mph 1007.2mb 40f 40f
6:06am 2 8 mph 1007.2mb 40f 40f
6:00am 3 13 mph 1007.2mb 40f 40f
5:54am 7 13 mph 1007.2mb 40f 40f
5:48am 6 9 mph 1007.2mb 40f 40f
5:42am 6 16 mph 1007.2mb 40f 40f
5:36am 6 10 mph 1007.2mb 40f 40f
5:30am 6 10 mph 1007.2mb 40f 40f
5:24am 8 13 mph 1007.3mb 40f 40f
5:18am 8 14 mph 1007.3mb 40f 40f
5:12am 6 11 mph 1007.2mb 40f 40f
5:06am 6 9 mph 1007.1mb 40f 40f
5:00am 8 13 mph 1007mb 40f 40f
4:54am 8 16 mph 1007.1mb 40f 40f
4:48am 5 9 mph 1007.2mb 40f 40f
4:42am 2 10 mph 1007.2mb 40f 40f
4:36am 2 5 mph 1007.1mb 40f 40f
4:30am 2 3 mph 1007.1mb 40f 40f
4:24am 2 5 mph 1007.1mb 40f 40f
4:18am 2 6 mph 1007.1mb 40f 40f
4:12am 1 3 mph 1007mb 40f 40f
4:06am 1 3 mph 1007.1mb 40f 40f
4:00am  -  5 mph 1007.1mb 40f 40f
3:54am 1 3 mph 1007.3mb 40f 40f
3:48am  -  3 mph 1007.2mb 40f 40f
3:42am 2 5 mph 1007.2mb 40f 40f
3:36am  -  2 mph 1007.2mb 40f 40f
3:30am 1 2 mph 1007.1mb - -
3:24am  -  5 mph 1007.1mb 40f 40f
3:18am 1 5 mph 1007.1mb 40f 40f
3:12am 1 6 mph 1007mb 40f 40f
3:06am 3 6 mph 1006.8mb 40f 40f
3:00am 3 9 mph 1006.8mb 40f 40f
2:54am 2 7 mph 1006.9mb 40f 40f
2:48am 6 9 mph 1007.1mb 40f 40f
2:42am 2 3 mph 1007.3mb 40f 40f
2:36am 1 6 mph 1007.5mb 40f 40f
2:30am 2 10 mph 1007.5mb 40f 40f
2:24am 7 10 mph 1007.4mb 40f 40f
2:18am 2 9 mph 1007.6mb 40f 40f
2:12am 5 7 mph 1007.5mb 40f 41f
2:06am 3 6 mph 1007.4mb 40f 41f
2:00am  -  6 mph 1007.4mb 40f 41f
1:54am 2 5 mph 1007.3mb 40f 41f
1:48am 2 6 mph 1007.3mb 40f 41f
1:42am 3 7 mph 1007.2mb 40f 41f
1:36am 5 8 mph 1007.2mb 40f 41f
1:30am 5 7 mph 1007.2mb 40f 41f
1:24am 2 5 mph 1007.2mb 40f 40f
1:18am  -  3 mph 1007.2mb 40f 41f
1:12am 2 3 mph 1007.2mb 40f 41f
1:06am 1 3 mph 1007.2mb 40f 40f
1:00am 3 5 mph 1007.1mb 40f 40f
12:54am 2 3 mph 1007mb 40f 40f
12:48am 2 3 mph 1007mb 40f 40f
12:42am 1 2 mph 1006.9mb 40f 40f
12:36am  -  1 mph 1007mb 40f 40f
12:30am  -  3 mph - - -
12:24am  -  1 mph 1006.8mb 40f 40f
12:18am 2 3 mph 1006.9mb 40f 40f
12:12am 1 3 mph 1006.8mb 40f 39f
12:06am 2 5 mph 1006.8mb 40f 38f
12:00am 1 6 mph 1006.8mb 40f 40f
Sun 01/13 11:54pm  -  2 mph 1006.8mb 40f 39f
11:48pm  -  3 mph 1006.7mb 40f 39f
11:42pm 1 3 mph 1006.7mb 40f 39f
11:36pm 2 5 mph 1006.7mb 40f 38f
11:30pm 2 3 mph - - -
11:24pm 3 5 mph 1006.6mb 40f 38f
11:18pm 3 6 mph 1006.6mb 40f 38f
11:12pm 3 6 mph 1006.6mb 40f 37f
11:06pm 5 5 mph 1006.6mb 40f 37f
11:00pm 3 5 mph 1006.6mb 40f 38f
10:54pm 5 5 mph 1006.6mb 40f 38f
10:48pm 3 5 mph 1006.5mb 40f 38f
10:42pm 3 3 mph 1006.5mb 40f 37f
10:36pm 3 6 mph 1006.4mb 40f 37f
10:30pm 5 7 mph - - -
10:24pm 5 6 mph 1006.3mb 40f 37f
10:18pm 5 6 mph 1006.3mb 40f 38f
10:12pm 1 3 mph 1006.1mb 40f 38f
10:06pm 1 5 mph 1006mb 40f 39f
10:00pm  -  2 mph 1006mb 40f 38f
9:54pm 2 2 mph 1005.9mb 40f 39f
9:48pm  -  3 mph 1005.8mb 40f 38f
9:42pm 3 3 mph 1005.8mb 40f -
9:36pm  -  2 mph 1005.7mb 40f 40f
9:30pm 2 5 mph 1005.7mb 40f 40f
9:24pm 3 5 mph 1005.6mb 40f 38f
9:18pm 1 3 mph 1005.5mb 40f 39f
9:12pm 3 3 mph 1005.5mb 40f 38f
9:06pm 3 6 mph 1005.4mb 40f 38f
9:00pm 3 6 mph 1005.3mb 40f 39f
8:54pm 5 6 mph 1005.2mb 40f 40f
8:48pm 3 5 mph 1005.1mb 40f 39f
8:42pm 3 6 mph 1005mb 40f 40f
8:36pm 3 6 mph 1005mb 40f 39f
8:30pm 1 5 mph 1004.9mb 40f 40f
8:24pm 2 5 mph 1004.8mb 40f 40f
8:18pm 1 5 mph 1004.8mb 40f 40f
8:12pm 1 8 mph 1004.7mb 40f 40f
8:06pm 3 7 mph 1004.7mb 40f 40f
8:00pm 6 9 mph 1004.6mb 40f 40f
7:54pm 5 10 mph 1004.5mb 40f 40f
7:48pm 5 9 mph 1004.5mb 40f 41f
7:42pm 5 7 mph 1004.4mb 40f 40f
7:36pm 2 6 mph 1004.4mb 40f 40f
7:30pm 5 9 mph 1004.4mb 40f 41f
7:24pm 5 8 mph 1004.4mb 40f 41f
7:18pm 5 6 mph 1004.4mb 40f 41f
7:12pm 3 9 mph 1004.3mb 40f 41f
7:06pm 5 6 mph 1004.4mb 40f 41f
7:00pm 3 7 mph 1004.3mb 40f 41f
6:54pm 5 7 mph 1004.3mb 40f 41f
6:48pm 3 8 mph 1004.3mb 40f 41f
6:42pm 2 3 mph 1004.2mb 40f 40f
6:36pm 3 7 mph 1004mb 40f 41f
6:30pm 2 8 mph - - -
6:24pm 5 7 mph 1003.8mb 40f 41f
6:18pm 6 7 mph 1003.7mb 40f 41f
6:12pm 6 9 mph 1003.6mb 40f 41f
6:06pm 5 13 mph 1003.4mb 40f 42f
6:00pm 6 10 mph 1003.3mb 40f 42f
5:54pm 7 11 mph 1003.2mb 40f 42f
5:48pm 9 13 mph 1003.1mb 40f 42f
5:42pm 5 11 mph 1002.9mb 40f 41f
5:36pm 7 13 mph 1002.8mb 40f 42f
5:30pm 6 10 mph 1002.6mb 40f 41f
5:24pm 7 10 mph 1002.3mb 40f 42f